Location: Newark
(22.3060°N, 114.2134°E)
Time: 11:58:30
(UTC+00:00)

S-56A Canister/Altair - Visible Passes

Search period start: 04 August 2021 00:00
Search period end: 14 August 2021 00:00
Orbit: 631 x 2501 km, 38.9° (Epoch: 04 August)

Date Brightness Start Highest point End Pass type
(mag) Time Alt. Az. Time Alt. Az. Time Alt. Az.
04 Aug 9.8 11:56:13 10° NW 12:11:23 75° NNE 12:20:10 22° ESE visible
04 Aug 9.9 14:04:32 10° WNW 14:16:58 42° SW 14:17:35 42° SW visible
05 Aug 10.0 11:22:31 10° NW 11:37:46 70° NNE 11:49:15 13° ESE visible
05 Aug 9.8 13:30:28 10° WNW 13:43:54 50° SW 13:46:40 43° SSW visible
06 Aug 9.9 12:56:29 10° WNW 13:10:42 57° SW 13:15:49 37° SSE visible
06 Aug 11.2 15:10:09 10° WSW 15:13:14 12° WSW 15:13:14 12° WSW visible
07 Aug 9.9 12:22:36 10° WNW 12:37:24 65° SW 12:45:00 27° SSE visible
07 Aug 10.9 14:34:17 10° W 14:41:41 17° SW 14:42:27 17° SW visible
08 Aug 10.0 11:48:49 10° WNW 12:03:59 73° SW 12:14:16 17° SE visible
08 Aug 10.7 13:59:15 10° W 14:08:42 22° SW 14:11:42 20° SW visible
09 Aug 10.1 11:15:09 10° WNW 11:30:29 81° SW 11:43:15 10° SE visible
09 Aug 10.7 13:24:35 10° WNW 13:35:40 27° SW 13:41:01 20° SSW visible
10 Aug 10.7 12:50:12 10° WNW 13:02:31 33° SW 13:10:24 17° S visible
11 Aug 10.7 12:16:03 10° WNW 12:29:17 39° SW 12:39:49 12° SSE visible
12 Aug 10.7 11:42:04 10° WNW 11:55:57 45° SW 12:07:55 10° SSE visible
13 Aug 10.6 11:08:15 10° WNW 11:22:32 51° SW 11:35:18 10° SSE visible
13 Aug 11.4 13:22:55 10° WSW 13:27:29 12° SW 13:31:48 10° SSW visible
